SUNNYSIDE Weather Reports


time (UTC)temp
C
wind
direction
speed
KPH
gust
KPH
rain 1hr
cm
rain 24hr
cm
rain mn
cm
humidity
%
barometer
mb
20260903205553 20 131 9.7 22.5 0.00 0.03 0.03 61 976.9
20260903205053 20 64 6.4 22.5 0.00 0.03 0.03 61 977.0
20260903204559 20 89 9.7 22.5 0.00 0.03 0.03 61 977.1
20260903204052 20 123 6.4 19.3 0.03 0.03 0.03 61 977.4
20260903203552 20 113 6.4 17.7 0.03 0.03 0.03 62 977.7
20260903203051 20 133 6.4 17.7 0.03 0.03 0.03 62 977.8
20260903202551 20 140 4.8 17.7 0.03 0.03 0.03 62 977.7
20260903202051 20 84 9.7 20.9 0.03 0.03 0.03 62 977.5
20260903201559 20 98 9.7 20.9 0.03 0.03 0.03 62 977.3
20260903201052 20 94 11.3 16.1 0.03 0.03 0.03 63 977.7
20260903200547 20 93 8.0 17.7 0.03 0.03 0.03 62 978.4
20260903200056 20 95 6.4 17.7 0.03 0.03 0.03 63 979.1
20260903195544 20 114 1.6 11.3 0.03 0.03 0.03 63 979.4
20260903195044 20 99 1.6 9.7 0.03 0.03 0.03 62 979.4
20260903194544 20 91 1.6 12.9 0.03 0.03 0.03 62 979.6
20260903194042 20 100 3.2 12.9 0.00 0.00 0.00 62 979.9
20260903193541 20 94 0.0 4.8 0.00 0.00 0.00 62 980.1
20260903193040 20 115 1.6 6.4 0.00 0.00 0.00 62 980.5
20260903192539 21 98 1.6 9.7 0.00 0.00 0.00 61 980.7
20260903192039 21 96 1.6 9.7 0.00 0.00 0.00 60 980.8
20260903191537 21 134 3.2 9.7 0.00 0.00 0.00 59 980.9
20260903191037 21 134 1.6 9.7 0.00 0.00 0.00 58 980.9
20260903190536 21 82 1.6 9.7 0.00 0.00 0.00 58 980.9
20260903190036 20 130 0.0 3.2 0.00 0.00 0.00 58 981.1
20260903185536 20 130 0.0 3.2 0.00 0.00 0.00 59 981.0
20260903185038 20 121 0.0 3.2 0.00 0.00 0.00 59 981.1
20260903184535 20 97 0.0 3.2 0.00 0.00 0.00 59 981.1
20260903184040 20 97 0.0 3.2 0.00 0.00 0.00 58 981.2
20260903183534 20 96 0.0 3.2 0.00 0.00 0.00 58 981.3
20260903183035 20 96 0.0 3.2 0.00 0.00 0.00 58 981.3
20260903182538 20 138 0.0 1.6 0.00 0.00 0.00 58 981.2
20260903182034 20 138 0.0 0.0 0.00 0.00 0.00 58 981.2
20260903181533 20 138 0.0 1.6 0.00 0.00 0.00 58 981.4
20260903181032 21 138 0.0 3.2 0.00 0.00 0.00 57 981.6
20260903180538 21 138 0.0 3.2 0.00 0.00 0.00 57 981.6
20260903180039 21 138 0.0 4.8 0.00 0.00 0.00 57 981.8
20260903175530 21 138 0.0 4.8 0.00 0.00 0.00 56 981.8
20260903175030 21 142 0.0 6.4 0.00 0.00 0.00 56 982.0
20260903174530 21 123 0.0 9.7 0.00 0.00 0.00 56 982.1
20260903174030 21 126 1.6 9.7 0.00 0.00 0.00 56 982.2
20260903173529 21 139 0.0 8.0 0.00 0.00 0.00 56 982.4
20260903173029 21 84 3.2 8.0 0.00 0.00 0.00 55 982.4
20260903172534 21 148 0.0 8.0 0.00 0.00 0.00 56 982.4
20260903172030 21 127 0.0 8.0 0.00 0.00 0.00 56 982.6
20260903171528 21 131 3.2 9.7 0.00 0.00 0.00 56 982.8
20260903171028 21 130 3.2 6.4 0.00 0.00 0.00 56 982.8
20260903170527 21 140 3.2 6.4 0.00 0.00 0.00 57 982.9
20260903170030 20 111 0.0 6.4 0.00 0.00 0.00 57 982.9
20260903165527 20 96 1.6 11.3 0.00 0.00 0.00 57 983.0
20260903165026 20 134 3.2 11.3 0.00 0.00 0.00 57 983.0
20260903164526 20 128 1.6 8.0 0.00 0.00 0.00 57 983.2
20260903164026 20 101 4.8 9.7 0.00 0.00 0.00 57 983.1
20260903163527 20 123 1.6 11.3 0.00 0.00 0.00 57 983.1
20260903163026 20 102 3.2 11.3 0.00 0.00 0.00 58 983.2
20260903162528 20 101 0.0 6.4 0.00 0.00 0.00 57 983.2
20260903162030 20 117 3.2 6.4 0.00 0.00 0.00 57 983.2
20260903161526 20 138 1.6 4.8 0.00 0.00 0.00 57 983.0
20260903161025 20 152 0.0 4.8 0.00 0.00 0.00 58 983.3
20260903160527 20 138 0.0 4.8 0.00 0.00 0.00 57 983.1
20260903160025 20 138 1.6 6.4 0.00 0.00 0.00 57 983.1
20260903155523 20 146 0.0 11.3 0.00 0.00 0.00 57 983.1
20260903155023 20 129 3.2 11.3 0.00 0.00 0.00 57 983.0
20260903154526 20 151 1.6 11.3 0.00 0.00 0.00 58 983.1
20260903154022 20 132 3.2 11.3 0.00 0.00 0.00 58 982.8
20260903153521 20 86 3.2 12.9 0.00 0.00 0.00 59 982.9
20260903153021 20 96 4.8 12.9 0.00 0.00 0.00 58 982.9
20260903152520 20 96 1.6 9.7 0.00 0.00 0.00 59 982.9
20260903152020 20 73 1.6 9.7 0.00 0.00 0.00 61 983.0
20260903151517 20 126 0.0 6.4 0.00 0.00 0.00 61 983.0
20260903151016 19 106 0.0 8.0 0.00 0.00 0.00 62 983.2
20260903150515 19 99 0.0 6.4 0.00 0.00 0.00 63 983.1
20260903150014 18 123 0.0 6.4 0.00 0.00 0.00 64 982.9
20260903145515 18 72 1.6 6.4 0.00 0.00 0.00 64 982.6
20260903145011 18 12 0.0 6.4 0.00 0.00 0.00 65 982.4
20260903144517 18 73 3.2 9.7 0.00 0.00 0.00 66 982.0
20260903144008 17 116 1.6 9.7 0.00 0.00 0.00 67 982.0
20260903143506 17 77 0.0 9.7 0.00 0.00 0.00 67 982.0
20260903143008 17 50 1.6 9.7 0.00 0.00 0.00 67 982.2
20260903142506 17 98 0.0 4.8 0.00 0.00 0.00 68 982.4
20260903142003 17 63 0.0 4.8 0.00 0.00 0.00 68 982.4
20260903141502 17 101 1.6 4.8 0.00 0.00 0.00 68 982.6
20260903141002 17 122 0.0 3.2 0.00 0.00 0.00 69 982.6
20260903140602 17 128 0.0 4.8 0.00 0.00 0.00 69 982.7
20260903140100 16 105 1.6 6.4 0.00 0.00 0.00 69 982.9
20260903135558 16 111 1.6 9.7 0.00 0.00 0.00 69 982.8
20260903135057 16 89 1.6 9.7 0.00 0.00 0.00 70 982.9
20260903134603 16 130 1.6 6.4 0.00 0.00 0.00 70 982.9
20260903134055 16 163 1.6 6.4 0.00 0.00 0.00 70 982.8
20260903133555 15 94 0.0 6.4 0.00 0.00 0.00 71 983.0
20260903133054 15 94 0.0 6.4 0.00 0.00 0.00 70 983.0
20260903132553 15 360 0.0 4.8 0.00 0.00 0.00 71 982.9
20260903132053 15 124 0.0 1.6 0.00 0.00 0.00 71 982.8
20260903131554 15 124 0.0 1.6 0.00 0.00 0.00 71 982.8
20260903131052 15 124 0.0 1.6 0.00 0.00 0.00 71 982.9
20260903130551 14 127 0.0 3.2 0.00 0.00 0.00 71 982.9
20260903130052 14 127 0.0 3.2 0.00 0.00 0.00 71 982.9
20260903125552 13 119 0.0 3.2 0.00 0.00 0.00 71 982.9
20260903125052 13 140 0.0 1.6 0.00 0.00 0.00 71 982.8
20260903124552 13 140 0.0 1.6 0.00 0.00 0.00 71 982.8
20260903124051 13 140 0.0 1.6 0.00 0.00 0.00 71 982.8
20260903123551 13 140 0.0 1.6 0.00 0.00 0.00 71 982.8
20260903123051 12 144 0.0 0.0 0.00 0.00 0.00 71 983.0
20260903122554 12 144 0.0 0.0 0.00 0.00 0.00 71 983.1
20260903122051 12 144 0.0 0.0 0.00 0.00 0.00 71 983.0
20260903121551 12 144 0.0 0.0 0.00 0.00 0.00 71 983.1
20260903121054 12 144 0.0 0.0 0.00 0.00 0.00 71 982.9
20260903120550 12 144 0.0 1.6 0.00 0.00 0.00 71 982.9
20260903120052 12 144 0.0 1.6 0.00 0.00 0.00 71 982.9
20260903115550 12 144 0.0 0.0 0.00 0.00 0.00 71 982.7
20260903115049 12 144 0.0 0.0 0.00 0.00 0.00 71 982.6
20260903114550 12 144 0.0 0.0 0.00 0.00 0.00 71 982.5
20260903114049 12 144 0.0 0.0 0.00 0.00 0.00 71 982.4
20260903113549 12 144 0.0 0.0 0.00 0.00 0.00 71 982.4
20260903113052 12 144 0.0 0.0 0.00 0.00 0.00 71 982.7
20260903112548 12 144 0.0 0.0 0.00 0.00 0.00 71 982.6
20260903112048 12 144 0.0 0.0 0.00 0.00 0.00 71 982.7
20260903111553 12 144 0.0 0.0 0.00 0.00 0.00 71 982.6
20260903111050 12 144 0.0 0.0 0.00 0.00 0.00 70 982.6
20260903110547 12 144 0.0 0.0 0.00 0.00 0.00 70 982.6
20260903110046 12 144 0.0 1.6 0.00 0.00 0.00 70 982.6
20260903105546 12 144 0.0 1.6 0.00 0.00 0.00 70 982.6
20260903105046 12 144 0.0 0.0 0.00 0.00 0.00 70 982.7
20260903104606 12 144 0.0 0.0 0.00 0.00 0.00 70 982.7
20260903104044 12 144 0.0 0.0 0.00 0.00 0.00 70 982.8
20260903103546 12 144 0.0 1.6 0.00 0.00 0.00 70 982.8
20260903103057 12 144 0.0 1.6 0.00 0.00 0.00 70 983.0
20260903102545 12 144 0.0 0.0 0.00 0.00 0.00 70 982.9
20260903102044 12 144 0.0 0.0 0.00 0.00 0.00 69 983.1
20260903101549 12 144 0.0 0.0 0.00 0.00 0.00 70 983.0
20260903101042 12 144 0.0 0.0 0.00 0.00 0.00 70 983.1
20260903100542 12 144 0.0 0.0 0.00 0.00 0.00 70 983.1
20260903100042 12 144 0.0 1.6 0.00 0.00 0.00 69 983.2
20260903095540 12 144 0.0 1.6 0.00 0.00 0.00 69 983.3
20260903095038 13 144 0.0 0.0 0.00 0.00 0.00 70 983.2
20260903094545 13 144 0.0 0.0 0.00 0.00 0.00 70 983.2
20260903094042 13 144 0.0 0.0 0.00 0.00 0.00 70 983.3
20260903093538 13 144 0.0 1.6 0.00 0.00 0.00 70 983.2
20260903093047 13 144 0.0 1.6 0.00 0.00 0.00 70 983.3
20260903092537 13 144 0.0 0.0 0.00 0.00 0.00 70 983.3
20260903092040 13 144 0.0 0.0 0.00 0.00 0.00 70 983.2
20260903091540 13 144 0.0 0.0 0.00 0.00 0.00 69 983.2
20260903091036 13 144 0.0 0.0 0.00 0.00 0.00 69 983.2
20260903090536 13 144 0.0 1.6 0.00 0.00 0.00 69 983.2
20260903090038 13 144 0.0 1.6 0.00 0.00 0.00 69 983.1
20260903085535 13 144 0.0 1.6 0.00 0.00 0.00 70 983.3
20260903085035 13 144 0.0 1.6 0.00 0.00 0.00 70 983.2
20260903084544 13 137 0.0 1.6 0.00 0.00 0.00 69 983.2
20260903084035 13 132 0.0 1.6 0.00 0.00 0.00 69 983.2
20260903083535 13 132 0.0 0.0 0.00 0.00 0.00 69 983.1
20260903083034 13 132 0.0 0.0 0.00 0.00 0.00 69 983.1
20260903082534 13 132 0.0 0.0 0.00 0.00 0.00 69 983.0
20260903082034 13 132 0.0 1.6 0.00 0.00 0.00 69 983.1
20260903081533 13 132 0.0 1.6 0.00 0.00 0.00 69 982.9
20260903081032 13 108 0.0 0.0 0.00 0.00 0.00 68 982.8
20260903080537 13 108 0.0 0.0 0.00 0.00 0.00 68 982.7
20260903080032 13 108 0.0 0.0 0.00 0.00 0.00 67 982.7
20260903075531 13 108 0.0 0.0 0.00 0.00 0.00 67 982.7
20260903075030 13 108 0.0 0.0 0.00 0.00 0.00 67 982.7
20260903074530 13 108 0.0 0.0 0.00 0.00 0.00 67 982.7
20260903074034 13 108 0.0 0.0 0.00 0.00 0.00 66 982.8
20260903073529 13 108 0.0 0.0 0.00 0.00 0.00 66 982.9
20260903073031 13 108 0.0 0.0 0.00 0.00 0.00 66 983.0
20260903072526 13 108 0.0 0.0 0.00 0.00 0.00 66 983.1
20260903072030 13 108 0.0 0.0 0.00 0.00 0.00 66 983.1
20260903071526 13 44 0.0 0.0 0.00 0.00 0.00 66 983.2
20260903071027 13 44 0.0 0.0 0.00 0.00 0.00 66 983.3
20260903070529 13 44 0.0 0.0 0.00 0.00 0.00 65 983.2
20260903070028 13 44 0.0 0.0 0.00 0.00 0.00 65 983.2
20260903065524 13 44 0.0 0.0 0.00 0.00 0.00 65 983.2
20260903065023 13 44 0.0 0.0 0.00 0.00 0.00 64 983.2
20260903064523 13 44 0.0 0.0 0.00 0.00 0.00 63 983.2
20260903064022 14 44 0.0 0.0 0.00 0.00 0.00 62 983.1
20260903063522 14 44 0.0 0.0 0.00 0.00 0.00 62 983.2
20260903063020 14 44 0.0 0.0 0.00 0.00 0.00 62 983.4
20260903062521 14 44 0.0 0.0 0.00 0.00 0.00 62 983.3
20260903062021 14 44 0.0 0.0 0.00 0.00 0.00 62 983.2
20260903061521 14 44 0.0 0.0 0.00 0.00 0.00 62 983.3
20260903061018 15 44 0.0 0.0 0.00 0.00 0.00 61 983.3
20260903060517 15 44 0.0 0.0 0.00 0.00 0.00 61 983.3
20260903060020 15 44 0.0 0.0 0.00 0.00 0.00 61 983.3
20260903055518 15 44 0.0 0.0 0.00 0.00 0.00 61 983.3
20260903055015 15 44 0.0 0.0 0.00 0.00 0.00 60 983.2
20260903054516 15 44 0.0 0.0 0.00 0.00 0.00 60 983.3
20260903054015 15 44 0.0 0.0 0.00 0.00 0.00 60 983.3
20260903053515 15 44 0.0 0.0 0.00 0.00 0.00 60 983.3
20260903053013 15 44 0.0 0.0 0.00 0.00 0.00 60 983.3
20260903052513 15 44 0.0 0.0 0.00 0.00 0.00 60 983.3
20260903052013 15 44 0.0 0.0 0.00 0.00 0.00 60 983.4
20260903051512 15 44 0.0 0.0 0.00 0.00 0.00 60 983.4
20260903051011 15 44 0.0 0.0 0.00 0.00 0.00 59 983.4
20260903050511 15 44 0.0 0.0 0.00 0.00 0.00 59 983.5
20260903050030 15 44 0.0 0.0 0.00 0.00 0.00 59 983.5
20260903045509 15 44 0.0 0.0 0.00 0.00 0.00 59 983.6
20260903045008 16 44 0.0 0.0 0.00 0.00 0.00 59 983.6
20260903044508 16 44 0.0 0.0 0.00 0.00 0.00 59 983.6
20260903044008 16 44 0.0 0.0 0.00 0.00 0.00 58 983.6
20260903043508 16 44 0.0 0.0 0.00 0.00 0.00 58 983.6
20260903043108 16 44 0.0 0.0 0.00 0.00 0.00 58 983.7
20260903042508 16 44 0.0 0.0 0.00 0.00 0.00 58 983.7
20260903042008 16 44 0.0 0.0 0.00 0.00 0.00 58 983.7
20260903041515 16 44 0.0 0.0 0.00 0.00 0.00 58 983.7
20260903041007 16 44 0.0 0.0 0.00 0.00 0.00 58 983.7
20260903040507 16 44 0.0 0.0 0.00 0.00 0.00 58 983.7
20260903040009 17 38 0.0 0.0 0.00 0.00 0.00 58 983.7
20260903035508 17 38 0.0 0.0 0.00 0.00 0.00 57 983.7
20260903035006 17 37 0.0 0.0 0.00 0.00 0.00 57 983.7
20260903034508 17 37 0.0 3.2 0.00 0.00 0.00 57 983.7
20260903034007 17 37 0.0 3.2 0.00 0.00 0.00 57 983.7
20260903033505 17 36 0.0 3.2 0.00 0.00 0.00 57 983.6
20260903033006 17 28 0.0 3.2 0.00 0.00 0.00 57 983.6
20260903032509 17 28 0.0 3.2 0.00 0.00 0.00 56 983.6
20260903032006 17 28 0.0 3.2 0.00 0.00 0.00 56 983.6
20260903031506 17 28 0.0 3.2 0.00 0.00 0.00 57 983.6
20260903031005 17 32 0.0 4.8 0.00 0.00 0.00 57 983.7
20260903030508 17 32 0.0 4.8 0.00 0.00 0.00 57 983.6
20260903030004 17 39 0.0 4.8 0.00 0.00 0.00 57 983.6
20260903025504 17 34 0.0 4.8 0.00 0.00 0.00 57 983.6
20260903025005 17 34 0.0 6.4 0.00 0.00 0.00 57 983.6
20260903024508 17 35 1.6 4.8 0.00 0.00 0.00 57 983.6
20260903024009 17 38 0.0 3.2 0.00 0.00 0.00 57 983.5
20260903023506 17 32 0.0 3.2 0.00 0.00 0.00 57 983.6
20260903023006 17 355 0.0 4.8 0.00 0.00 0.00 57 983.5
20260903022505 17 36 0.0 4.8 0.00 0.00 0.00 57 983.5
20260903022004 17 42 0.0 4.8 0.00 0.00 0.00 57 983.5
20260903021508 18 42 0.0 6.4 0.00 0.00 0.00 57 983.5
20260903021007 18 43 1.6 6.4 0.00 0.00 0.00 56 983.5
20260903020503 18 33 0.0 4.8 0.00 0.00 0.00 56 983.5
20260903020009 18 40 0.0 6.4 0.00 0.00 0.00 56 983.5
20260903015503 18 46 1.6 6.4 0.00 0.00 0.00 56 983.4
20260903015003 18 49 1.6 6.4 0.00 0.00 0.00 56 983.4
20260903014502 18 32 1.6 6.4 0.00 0.00 0.00 55 983.4
20260903014003 18 55 1.6 6.4 0.00 0.00 0.00 55 983.3
20260903013504 19 44 0.0 4.8 0.00 0.00 0.00 55 983.4
20260903013002 19 25 0.0 3.2 0.00 0.00 0.00 55 983.3
20260903012503 19 25 0.0 3.2 0.00 0.00 0.00 55 983.4
20260903012002 20 24 0.0 3.2 0.00 0.00 0.00 55 983.4
20260903011502 20 24 0.0 4.8 0.00 0.00 0.00 55 983.4
20260903011001 20 24 0.0 4.8 0.00 0.00 0.00 55 983.4
20260903010502 20 24 0.0 4.8 0.00 0.00 0.00 54 983.4
20260903010002 21 24 0.0 4.8 0.00 0.00 0.00 54 983.5
20260903005502 21 16 1.6 6.4 0.00 0.00 0.00 54 983.5
20260903005001 21 21 1.6 8.0 0.00 0.00 0.00 53 983.5
20260903004502 22 5 1.6 8.0 0.00 0.00 0.00 52 983.6
20260903004003 22 19 0.0 6.4 0.00 0.00 0.00 52 983.5
20260903003501 22 17 0.0 4.8 0.00 0.00 0.00 51 983.5
20260903003001 22 12 0.0 4.8 0.00 0.00 0.00 51 983.6
20260903002502 22 11 0.0 4.8 0.00 0.00 0.00 50 983.4
20260903002003 23 19 0.0 4.8 0.00 0.00 0.00 50 983.4
20260903001610 23 19 1.6 4.8 0.00 0.00 0.00 50 983.4
20260903001103 23 355 0.0 4.8 0.00 0.00 0.00 50 983.4
20260903000601 23 21 1.6 8.0 0.00 0.00 0.00 50 983.3
20260903000109 23 32 1.6 8.0 0.00 0.00 0.00 50 983.4
20260902235600 23 11 1.6 6.4 0.00 0.00 0.00 50 983.4
20260902235059 23 39 1.6 6.4 0.00 0.00 0.00 49 983.4
20260902234559 23 13 1.6 8.0 0.00 0.00 0.00 48 983.4
20260902234059 23 82 1.6 8.0 0.00 0.00 0.00 48 983.4
20260902234003 23 83 3.2 8.0 0.00 0.00 0.00 47 983.3
20260902233559 23 11 0.0 8.0 0.00 0.00 0.00 48 983.2
20260902233103 23 360 3.2 8.0 0.00 0.00 0.00 48 983.1
20260902232559 23 17 3.2 8.0 0.00 0.00 0.00 47 983.2
20260902232101 23 25 1.6 8.0 0.00 0.00 0.00 48 983.3
20260902231600 23 13 3.2 8.0 0.00 0.00 0.00 48 983.2
20260902231059 23 32 3.2 9.7 0.00 0.00 0.00 47 983.3
20260902230558 23 56 3.2 9.7 0.00 0.00 0.00 47 983.2
20260902230058 24 37 3.2 9.7 0.00 0.00 0.00 47 983.3
20260902225558 24 42 3.2 8.0 0.00 0.00 0.00 47 983.1
20260902225102 24 28 3.2 8.0 0.00 0.00 0.00 46 983.1
20260902224557 24 48 1.6 8.0 0.00 0.00 0.00 47 983.1
20260902224056 24 309 0.0 4.8 0.00 0.00 0.00 47 983.2
20260902223556 23 360 0.0 6.4 0.00 0.00 0.00 46 983.2
20260902223056 23 306 3.2 9.7 0.00 0.00 0.00 46 983.2
20260902222556 23 277 3.2 9.7 0.00 0.00 0.00 46 983.2
20260902222056 23 238 0.0 9.7 0.00 0.00 0.00 46 983.2
20260902221611 23 255 3.2 9.7 0.00 0.00 0.00 48 983.2
20260902221054 23 253 3.2 9.7 0.00 0.00 0.00 46 983.2
20260902220554 24 221 4.8 9.7 0.00 0.00 0.00 47 983.3
20260902220101 24 254 3.2 6.4 0.00 0.00 0.00 45 983.3
20260902215553 24 289 0.0 4.8 0.00 0.00 0.00 47 983.3
20260902215055 24 300 0.0 4.8 0.00 0.00 0.00 47 983.3
20260902214553 23 300 0.0 6.4 0.00 0.00 0.00 46 983.4
20260902214052 23 360 3.2 6.4 0.00 0.00 0.00 46 983.4
20260902213552 24 281 0.0 4.8 0.00 0.00 0.00 47 983.4
20260902213055 24 18 0.0 4.8 0.00 0.00 0.00 49 983.4
20260902212550 23 18 0.0 4.8 0.00 0.00 0.00 47 983.4
20260902212049 23 18 0.0 6.4 0.00 0.00 0.00 49 983.4
20260902211557 23 69 3.2 9.7 0.00 0.00 0.00 47 983.5
20260902211053 23 42 3.2 9.7 0.00 0.00 0.00 48 983.4
20260902210547 23 360 4.8 9.7 0.00 0.00 0.00 49 983.3
20260902210047 23 63 1.6 9.7 0.00 0.00 0.00 52 983.5